Time,TemperatureF,DewpointF,PressureIn,WindDirection,WindDirectionDegrees,WindSpeedMPH,WindSpeedGustMPH,Humidity,HourlyPrecipIn,Conditions,Clouds,dailyrainin,SoftwareType,DateUTC
2013-07-04 00:04:00,71.8,45.4,30.14,NNE,22,0.0,0.0,39,0.00,,,0.00,WUHU21623XXSP,2013-07-04 07:04:00,
2013-07-04 00:09:00,71.2,45.1,30.13,ESE,112,0.0,0.0,39,0.00,,,0.00,WUHU21623XXSP,2013-07-04 07:09:00,
2013-07-04 00:16:00,70.7,45.2,30.13,SSE,157,0.0,0.0,40,0.00,,,0.00,WUHU21623XXSP,2013-07-04 07:16:00,
2013-07-04 00:21:00,70.5,45.1,30.13,SSE,157,0.0,0.0,40,0.00,,,0.00,WUHU21623XXSP,2013-07-04 07:21:00,
2013-07-04 00:28:00,70.0,44.6,30.13,SSE,157,0.0,0.0,40,0.00,,,0.00,WUHU21623XXSP,2013-07-04 07:28:00,
2013-07-04 00:33:00,69.6,44.3,30.13,SSE,157,0.0,0.0,40,0.00,,,0.00,WUHU21623XXSP,2013-07-04 07:33:00,
2013-07-04 00:39:00,69.3,44.5,30.13,SSE,157,0.0,0.0,41,0.00,,,0.00,WUHU21623XXSP,2013-07-04 07:39:00,
2013-07-04 00:44:00,68.9,44.4,30.13,SSE,157,0.0,0.0,41,0.00,,,0.00,WUHU21623XXSP,2013-07-04 07:44:00,
2013-07-04 00:50:00,68.7,44.0,30.13,SSE,157,0.0,0.0,41,0.00,,,0.00,WUHU21623XXSP,2013-07-04 07:50:00,
2013-07-04 00:55:00,68.5,43.9,30.13,SSE,157,0.0,0.0,41,0.00,,,0.00,WUHU21623XXSP,2013-07-04 07:55:00,
2013-07-04 01:00:00,68.5,43.9,30.13,SSE,157,0.0,0.0,41,0.00,,,0.00,WUHU21623XXSP,2013-07-04 08:00:00,
2013-07-04 01:05:00,68.2,44.1,30.13,SSE,157,0.0,0.0,42,0.00,,,0.00,WUHU21623XXSP,2013-07-04 08:05:00,
2013-07-04 01:13:00,67.8,44.4,30.13,ESE,112,0.0,0.0,43,0.00,,,0.00,WUHU21623XXSP,2013-07-04 08:13:00,
2013-07-04 01:18:00,67.6,44.3,30.13,East,90,0.0,0.0,43,0.00,,,0.00,WUHU21623XXSP,2013-07-04 08:18:00,
2013-07-04 01:24:00,67.6,44.3,30.13,East,90,0.0,0.0,43,0.00,,,0.00,WUHU21623XXSP,2013-07-04 08:24:00,
2013-07-04 01:33:00,67.5,44.1,30.13,WNW,292,0.0,0.0,43,0.00,,,0.00,WUHU21623XXSP,2013-07-04 08:33:00,
2013-07-04 01:38:00,67.3,44.5,30.13,NW,315,0.0,0.0,44,0.00,,,0.00,WUHU21623XXSP,2013-07-04 08:38:00,
2013-07-04 01:48:00,67.3,44.5,30.13,NNE,22,0.0,0.0,44,0.00,,,0.00,WUHU21623XXSP,2013-07-04 08:48:00,
2013-07-04 01:53:00,67.1,44.4,30.13,NNE,22,0.0,0.0,44,0.00,,,0.00,WUHU21623XXSP,2013-07-04 08:53:00,
2013-07-04 01:58:00,66.9,45.4,30.13,North,0,0.0,0.0,46,0.00,,,0.00,WUHU21623XXSP,2013-07-04 08:58:00,
2013-07-04 02:03:00,66.7,44.6,30.14,SSE,157,0.0,0.0,45,0.00,,,0.00,WUHU21623XXSP,2013-07-04 09:03:00,
2013-07-04 02:08:00,66.6,44.5,30.14,SSW,202,0.0,0.0,45,0.00,,,0.00,WUHU21623XXSP,2013-07-04 09:08:00,
2013-07-04 02:13:00,66.4,44.3,30.14,SSE,157,0.0,0.0,45,0.00,,,0.00,WUHU21623XXSP,2013-07-04 09:13:00,
2013-07-04 02:20:00,65.8,44.4,30.14,South,180,0.0,0.0,46,0.00,,,0.00,WUHU21623XXSP,2013-07-04 09:20:00,
2013-07-04 02:25:00,65.7,44.4,30.14,South,180,0.0,0.0,46,0.00,,,0.00,WUHU21623XXSP,2013-07-04 09:25:00,
2013-07-04 02:30:00,65.5,44.0,30.14,West,270,0.0,0.0,46,0.00,,,0.00,WUHU21623XXSP,2013-07-04 09:30:00,
2013-07-04 02:35:00,65.3,43.9,30.14,SSE,157,0.0,0.0,46,0.00,,,0.00,WUHU21623XXSP,2013-07-04 09:35:00,
2013-07-04 02:44:00,64.9,43.5,30.14,SSW,202,0.0,0.0,46,0.00,,,0.00,WUHU21623XXSP,2013-07-04 09:44:00,
2013-07-04 02:49:00,64.8,44.1,30.14,SSW,202,0.0,0.0,47,0.00,,,0.00,WUHU21623XXSP,2013-07-04 09:49:00,
2013-07-04 02:57:00,64.4,43.6,30.13,NNW,337,0.0,0.0,47,0.00,,,0.00,WUHU21623XXSP,2013-07-04 09:57:00,
2013-07-04 03:02:00,64.0,44.0,30.13,SE,135,0.0,0.0,48,0.00,,,0.00,WUHU21623XXSP,2013-07-04 10:02:00,
2013-07-04 03:07:00,64.0,43.8,30.13,SE,135,0.0,0.0,48,0.00,,,0.00,WUHU21623XXSP,2013-07-04 10:07:00,
2013-07-04 03:12:00,63.7,43.5,30.13,ESE,112,0.0,0.0,48,0.00,,,0.00,WUHU21623XXSP,2013-07-04 10:12:00,
2013-07-04 03:20:00,63.1,43.6,30.13,ESE,112,0.0,0.0,49,0.00,,,0.00,WUHU21623XXSP,2013-07-04 10:20:00,
2013-07-04 03:26:00,63.1,43.6,30.13,ESE,112,0.0,0.0,49,0.00,,,0.00,WUHU21623XXSP,2013-07-04 10:26:00,
2013-07-04 03:31:00,63.0,43.4,30.13,ESE,112,0.0,0.0,49,0.00,,,0.00,WUHU21623XXSP,2013-07-04 10:31:00,
2013-07-04 03:41:00,62.6,43.7,30.13,WNW,292,0.0,0.0,50,0.00,,,0.00,WUHU21623XXSP,2013-07-04 10:41:00,
2013-07-04 03:46:00,62.6,44.2,30.13,SE,135,0.0,0.0,51,0.00,,,0.00,WUHU21623XXSP,2013-07-04 10:46:00,
2013-07-04 03:54:00,62.4,44.0,30.13,ESE,112,0.0,0.0,51,0.00,,,0.00,WUHU21623XXSP,2013-07-04 10:54:00,
2013-07-04 03:59:00,62.4,44.0,30.13,ESE,112,0.0,0.0,51,0.00,,,0.00,WUHU21623XXSP,2013-07-04 10:59:00,
2013-07-04 04:04:00,62.4,44.0,30.13,SSE,157,0.0,0.0,51,0.00,,,0.00,WUHU21623XXSP,2013-07-04 11:04:00,
2013-07-04 04:15:00,62.4,44.0,30.13,West,270,0.0,0.0,51,0.00,,,0.00,WUHU21623XXSP,2013-07-04 11:15:00,
2013-07-04 04:20:00,62.4,44.0,30.13,SSE,157,0.0,0.0,51,0.00,,,0.00,WUHU21623XXSP,2013-07-04 11:20:00,
2013-07-04 04:26:00,62.2,43.9,30.13,SW,225,0.0,0.0,51,0.00,,,0.00,WUHU21623XXSP,2013-07-04 11:26:00,
2013-07-04 04:31:00,62.1,43.7,30.13,WSW,247,0.0,0.0,51,0.00,,,0.00,WUHU21623XXSP,2013-07-04 11:31:00,
2013-07-04 04:36:00,61.9,43.5,30.13,SSE,157,0.0,0.0,51,0.00,,,0.00,WUHU21623XXSP,2013-07-04 11:36:00,
2013-07-04 04:41:00,61.7,43.4,30.13,SSE,157,0.0,0.0,51,0.00,,,0.00,WUHU21623XXSP,2013-07-04 11:41:00,
2013-07-04 04:46:00,61.5,43.2,30.13,SSE,157,0.0,0.0,51,0.00,,,0.00,WUHU21623XXSP,2013-07-04 11:46:00,
2013-07-04 04:51:00,61.3,43.5,30.13,SSE,157,0.0,0.0,52,0.00,,,0.00,WUHU21623XXSP,2013-07-04 11:51:00,
2013-07-04 04:56:00,61.2,43.4,30.13,SSE,157,0.0,0.0,52,0.00,,,0.00,WUHU21623XXSP,2013-07-04 11:56:00,
2013-07-04 05:01:00,61.2,43.4,30.13,ESE,112,0.0,0.0,52,0.00,,,0.00,WUHU21623XXSP,2013-07-04 12:01:00,
2013-07-04 05:07:00,60.6,42.9,30.13,ESE,112,0.0,0.0,52,0.00,,,0.00,WUHU21623XXSP,2013-07-04 12:07:00,
2013-07-04 05:13:00,60.6,42.9,30.13,ESE,112,0.0,0.0,52,0.00,,,0.00,WUHU21623XXSP,2013-07-04 12:13:00,
2013-07-04 05:19:00,60.4,43.2,30.14,ESE,112,0.0,0.0,53,0.00,,,0.00,WUHU21623XXSP,2013-07-04 12:19:00,
2013-07-04 05:26:00,60.1,42.9,30.13,ESE,112,0.0,0.0,53,0.00,,,0.00,WUHU21623XXSP,2013-07-04 12:26:00,
2013-07-04 05:34:00,59.9,42.7,30.13,SE,135,0.0,0.0,53,0.00,,,0.00,WUHU21623XXSP,2013-07-04 12:34:00,
2013-07-04 05:39:00,59.7,42.5,30.13,ESE,112,0.0,0.0,53,0.00,,,0.00,WUHU21623XXSP,2013-07-04 12:39:00,
2013-07-04 05:45:00,59.5,42.8,30.13,East,90,0.0,0.0,54,0.00,,,0.00,WUHU21623XXSP,2013-07-04 12:45:00,
2013-07-04 05:50:00,59.4,42.8,30.13,SE,135,0.0,0.0,55,0.00,,,0.00,WUHU21623XXSP,2013-07-04 12:50:00,
2013-07-04 05:55:00,59.4,43.1,30.13,SE,135,0.0,0.0,55,0.00,,,0.00,WUHU21623XXSP,2013-07-04 12:55:00,
2013-07-04 06:00:00,59.4,43.1,30.13,SE,135,0.0,0.0,55,0.00,,,0.00,WUHU21623XXSP,2013-07-04 13:00:00,
2013-07-04 06:05:00,59.2,43.0,30.13,SE,135,0.0,0.0,55,0.00,,,0.00,WUHU21623XXSP,2013-07-04 13:05:00,
2013-07-04 06:11:00,59.2,43.0,30.13,ENE,67,0.0,0.0,55,0.00,,,0.00,WUHU21623XXSP,2013-07-04 13:11:00,
2013-07-04 06:16:00,59.0,43.3,30.13,NNE,22,0.0,0.0,56,0.00,,,0.00,WUHU21623XXSP,2013-07-04 13:16:00,
2013-07-04 06:21:00,59.0,43.3,30.13,NNE,22,0.0,0.0,56,0.00,,,0.00,WUHU21623XXSP,2013-07-04 13:21:00,
2013-07-04 06:30:00,59.2,43.9,30.12,NE,45,0.0,0.0,57,0.00,,,0.00,WUHU21623XXSP,2013-07-04 13:30:00,
2013-07-04 06:35:00,59.2,43.9,30.12,NE,45,0.0,0.0,57,0.00,,,0.00,WUHU21623XXSP,2013-07-04 13:35:00,
2013-07-04 06:41:00,59.2,43.9,30.13,SSE,157,0.0,0.0,57,0.00,,,0.00,WUHU21623XXSP,2013-07-04 13:41:00,
2013-07-04 06:46:00,59.4,44.1,30.13,SE,135,0.0,0.0,57,0.00,,,0.00,WUHU21623XXSP,2013-07-04 13:46:00,
2013-07-04 06:51:00,59.4,44.5,30.13,NE,45,0.0,0.0,58,0.00,,,0.00,WUHU21623XXSP,2013-07-04 13:51:00,
2013-07-04 06:57:00,59.7,44.9,30.13,NE,45,0.0,0.0,58,0.00,,,0.00,WUHU21623XXSP,2013-07-04 13:57:00,
2013-07-04 07:02:00,59.9,45.1,30.13,NE,45,0.0,0.0,58,0.00,,,0.00,WUHU21623XXSP,2013-07-04 14:02:00,
2013-07-04 07:07:00,60.1,45.2,30.13,NE,45,0.0,0.0,58,0.00,,,0.00,WUHU21623XXSP,2013-07-04 14:07:00,
2013-07-04 07:15:00,60.4,45.6,30.12,WSW,247,0.0,0.0,58,0.00,,,0.00,WUHU21623XXSP,2013-07-04 14:15:00,
2013-07-04 07:24:00,60.6,45.8,30.12,South,180,0.0,0.0,58,0.00,,,0.00,WUHU21623XXSP,2013-07-04 14:24:00,
2013-07-04 07:32:00,61.2,46.3,30.12,South,180,0.0,0.0,58,0.00,,,0.00,WUHU21623XXSP,2013-07-04 14:32:00,
2013-07-04 07:39:00,61.5,46.6,30.12,WSW,247,0.0,0.0,58,0.00,,,0.00,WUHU21623XXSP,2013-07-04 14:39:00,
2013-07-04 07:44:00,61.7,46.8,30.13,SE,135,0.0,0.0,58,0.00,,,0.00,WUHU21623XXSP,2013-07-04 14:44:00,
2013-07-04 07:49:00,62.1,47.1,30.12,SSW,202,0.0,0.0,58,0.00,,,0.00,WUHU21623XXSP,2013-07-04 14:49:00,
2013-07-04 07:54:00,62.4,47.4,30.13,WNW,292,0.0,0.0,58,0.00,,,0.00,WUHU21623XXSP,2013-07-04 14:54:00,
2013-07-04 07:59:00,62.6,47.6,30.12,SW,225,0.0,0.0,58,0.00,,,0.00,WUHU21623XXSP,2013-07-04 14:59:00,
2013-07-04 08:04:00,63.0,47.9,30.12,WNW,292,0.0,0.0,58,0.00,,,0.00,WUHU21623XXSP,2013-07-04 15:04:00,
2013-07-04 08:09:00,63.1,48.1,30.13,WNW,292,0.0,0.0,58,0.00,,,0.00,WUHU21623XXSP,2013-07-04 15:09:00,
2013-07-04 08:14:00,63.5,48.4,30.12,WNW,292,0.0,0.0,58,0.00,,,0.00,WUHU21623XXSP,2013-07-04 15:14:00,
2013-07-04 08:19:00,64.0,48.4,30.12,West,270,0.0,0.0,57,0.00,,,0.00,WUHU21623XXSP,2013-07-04 15:19:00,
2013-07-04 08:24:00,64.2,48.6,30.12,SSW,202,0.0,0.0,57,0.00,,,0.00,WUHU21623XXSP,2013-07-04 15:24:00,
2013-07-04 08:36:00,65.3,49.4,30.12,ENE,67,0.0,0.0,57,0.00,,,0.00,WUHU21623XXSP,2013-07-04 15:36:00,
2013-07-04 08:41:00,65.5,49.3,30.12,NE,45,0.0,0.0,56,0.00,,,0.00,WUHU21623XXSP,2013-07-04 15:41:00,
2013-07-04 08:46:00,65.8,49.7,30.12,NW,315,0.0,0.0,56,0.00,,,0.00,WUHU21623XXSP,2013-07-04 15:46:00,
2013-07-04 08:51:00,66.4,49.7,30.11,North,0,0.0,0.0,55,0.00,,,0.00,WUHU21623XXSP,2013-07-04 15:51:00,
2013-07-04 08:58:00,66.9,50.2,30.11,South,180,0.0,0.0,55,0.00,,,0.00,WUHU21623XXSP,2013-07-04 15:58:00,
2013-07-04 09:03:00,67.3,50.2,30.11,South,180,0.0,0.0,55,0.00,,,0.00,WUHU21623XXSP,2013-07-04 16:03:00,
2013-07-04 09:08:00,67.8,50.8,30.11,SE,135,0.0,0.0,55,0.00,,,0.00,WUHU21623XXSP,2013-07-04 16:08:00,
2013-07-04 09:13:00,68.5,50.7,30.12,SSE,157,0.0,0.0,53,0.00,,,0.00,WUHU21623XXSP,2013-07-04 16:13:00,
2013-07-04 09:18:00,68.7,50.9,30.11,SSE,157,0.0,0.0,53,0.00,,,0.00,WUHU21623XXSP,2013-07-04 16:18:00,
2013-07-04 09:24:00,69.6,51.7,30.10,SSE,157,0.0,0.0,53,0.00,,,0.00,WUHU21623XXSP,2013-07-04 16:24:00,
2013-07-04 09:29:00,70.3,52.4,30.10,SSW,202,0.0,0.0,53,0.00,,,0.00,WUHU21623XXSP,2013-07-04 16:29:00,
2013-07-04 09:34:00,70.9,52.3,30.10,SE,135,0.0,0.0,52,0.00,,,0.00,WUHU21623XXSP,2013-07-04 16:34:00,
2013-07-04 09:39:00,71.2,52.7,30.10,SSE,157,0.0,0.0,52,0.00,,,0.00,WUHU21623XXSP,2013-07-04 16:39:00,
2013-07-04 09:44:00,71.8,52.6,30.10,SE,135,0.0,0.0,51,0.00,,,0.00,WUHU21623XXSP,2013-07-04 16:44:00,
2013-07-04 09:49:00,72.3,52.0,30.09,SSE,157,0.0,0.0,49,0.00,,,0.00,WUHU21623XXSP,2013-07-04 16:49:00,
2013-07-04 09:54:00,73.2,52.8,30.09,South,180,1.8,1.8,49,0.00,,,0.00,WUHU21623XXSP,2013-07-04 16:54:00,
2013-07-04 09:59:00,73.6,53.2,30.09,ESE,112,0.0,1.8,49,0.00,,,0.00,WUHU21623XXSP,2013-07-04 16:59:00,
2013-07-04 10:04:00,73.9,52.9,30.09,SSE,157,0.0,0.0,48,0.00,,,0.00,WUHU21623XXSP,2013-07-04 17:04:00,
2013-07-04 10:09:00,74.1,53.1,30.09,SE,135,0.0,0.0,48,0.00,,,0.00,WUHU21623XXSP,2013-07-04 17:09:00,
2013-07-04 10:14:00,74.7,53.6,30.09,ESE,112,0.0,0.0,48,0.00,,,0.00,WUHU21623XXSP,2013-07-04 17:14:00,
2013-07-04 10:19:00,75.4,53.7,30.08,SE,135,0.0,0.0,47,0.00,,,0.00,WUHU21623XXSP,2013-07-04 17:19:00,
2013-07-04 10:24:00,75.7,54.0,30.08,East,90,0.0,0.0,47,0.00,,,0.00,WUHU21623XXSP,2013-07-04 17:24:00,
2013-07-04 10:30:00,76.6,53.6,30.08,South,180,0.0,0.0,45,0.00,,,0.00,WUHU21623XXSP,2013-07-04 17:30:00,
2013-07-04 10:35:00,77.2,54.1,30.08,South,180,0.0,0.0,45,0.00,,,0.00,WUHU21623XXSP,2013-07-04 17:35:00,
2013-07-04 10:41:00,77.7,54.0,30.07,SSE,157,0.0,0.0,44,0.00,,,0.00,WUHU21623XXSP,2013-07-04 17:41:00,
2013-07-04 10:49:00,78.6,54.8,30.08,WSW,247,0.0,0.0,44,0.00,,,0.00,WUHU21623XXSP,2013-07-04 17:49:00,
2013-07-04 10:54:00,79.0,54.2,30.08,SE,135,0.0,0.0,43,0.00,,,0.00,WUHU21623XXSP,2013-07-04 17:54:00,
2013-07-04 11:00:00,79.5,53.8,30.08,SSW,202,1.1,1.1,41,0.00,,,0.00,WUHU21623XXSP,2013-07-04 18:00:00,
2013-07-04 11:05:00,79.9,54.7,30.07,SE,135,0.0,1.1,42,0.00,,,0.00,WUHU21623XXSP,2013-07-04 18:05:00,
2013-07-04 11:10:00,80.4,55.2,30.07,NNW,337,0.0,0.0,42,0.00,,,0.00,WUHU21623XXSP,2013-07-04 18:10:00,
2013-07-04 11:15:00,80.6,53.4,30.07,NNW,337,0.0,0.0,39,0.00,,,0.00,WUHU21623XXSP,2013-07-04 18:15:00,
2013-07-04 11:20:00,81.3,54.0,30.07,NNW,337,2.2,2.2,39,0.00,,,0.00,WUHU21623XXSP,2013-07-04 18:20:00,
2013-07-04 11:25:00,82.2,53.9,30.06,South,180,0.0,2.2,38,0.00,,,0.00,WUHU21623XXSP,2013-07-04 18:25:00,
2013-07-04 11:30:00,82.6,54.3,30.07,NNE,22,0.0,0.0,38,0.00,,,0.00,WUHU21623XXSP,2013-07-04 18:30:00,
2013-07-04 11:35:00,83.1,53.2,30.07,North,0,0.0,0.0,36,0.00,,,0.00,WUHU21623XXSP,2013-07-04 18:35:00,
2013-07-04 11:40:00,84.0,54.8,30.06,South,180,0.0,0.0,37,0.00,,,0.00,WUHU21623XXSP,2013-07-04 18:40:00,
2013-07-04 11:45:00,84.7,53.7,30.07,WNW,292,0.9,0.9,35,0.00,,,0.00,WUHU21623XXSP,2013-07-04 18:45:00,
2013-07-04 11:50:00,85.1,54.2,30.07,West,270,0.0,0.9,35,0.00,,,0.00,WUHU21623XXSP,2013-07-04 18:50:00,
2013-07-04 11:55:00,85.8,54.9,30.07,ESE,112,0.0,0.0,35,0.00,,,0.00,WUHU21623XXSP,2013-07-04 18:55:00,
2013-07-04 12:00:00,86.2,54.4,30.07,SSE,157,0.0,0.0,35,0.00,,,0.00,WUHU21623XXSP,2013-07-04 19:00:00,
2013-07-04 12:05:00,86.5,55.5,30.06,East,90,0.0,0.0,36,0.00,,,0.00,WUHU21623XXSP,2013-07-04 19:05:00,
2013-07-04 12:10:00,86.7,56.4,30.06,WNW,292,0.7,0.7,35,0.00,,,0.00,WUHU21623XXSP,2013-07-04 19:10:00,
2013-07-04 12:15:00,86.7,54.0,30.06,WNW,292,2.7,2.7,33,0.00,,,0.00,WUHU21623XXSP,2013-07-04 19:15:00,
2013-07-04 12:20:00,87.6,54.0,30.06,NNE,22,0.0,2.7,32,0.00,,,0.00,WUHU21623XXSP,2013-07-04 19:20:00,
2013-07-04 12:25:00,88.3,54.6,30.05,ESE,112,0.0,0.0,32,0.00,,,0.00,WUHU21623XXSP,2013-07-04 19:25:00,
2013-07-04 12:30:00,88.7,54.1,30.06,North,0,0.7,0.7,31,0.00,,,0.00,WUHU21623XXSP,2013-07-04 19:30:00,
2013-07-04 12:38:00,89.2,52.7,30.06,NNW,337,0.0,0.7,29,0.00,,,0.00,WUHU21623XXSP,2013-07-04 19:38:00,
2013-07-04 12:43:00,89.2,54.6,30.06,NNW,337,0.0,0.0,31,0.00,,,0.00,WUHU21623XXSP,2013-07-04 19:43:00,
2013-07-04 12:53:00,88.7,52.3,30.06,WNW,292,2.7,2.7,29,0.00,,,0.00,WUHU21623XXSP,2013-07-04 19:53:00,
2013-07-04 13:02:00,88.5,54.0,30.06,SSW,202,0.0,2.7,31,0.00,,,0.00,WUHU21623XXSP,2013-07-04 20:02:00,
2013-07-04 13:08:00,88.2,54.4,30.05,South,180,2.0,2.0,32,0.00,,,0.00,WUHU21623XXSP,2013-07-04 20:08:00,
2013-07-04 13:13:00,88.2,55.3,30.05,SSW,202,3.6,3.6,33,0.00,,,0.00,WUHU21623XXSP,2013-07-04 20:13:00,
2013-07-04 13:18:00,88.3,55.4,30.05,ENE,67,0.0,3.6,33,0.00,,,0.00,WUHU21623XXSP,2013-07-04 20:18:00,
2013-07-04 13:23:00,88.9,55.1,30.04,East,90,0.0,0.0,32,0.00,,,0.00,WUHU21623XXSP,2013-07-04 20:23:00,
2013-07-04 13:32:00,90.1,55.4,30.04,ESE,112,0.0,0.0,31,0.00,,,0.00,WUHU21623XXSP,2013-07-04 20:32:00,
2013-07-04 13:37:00,90.5,55.7,30.03,SW,225,0.0,0.0,31,0.00,,,0.00,WUHU21623XXSP,2013-07-04 20:37:00,
2013-07-04 13:42:00,91.0,56.1,30.03,WNW,292,0.0,0.0,31,0.00,,,0.00,WUHU21623XXSP,2013-07-04 20:42:00,
2013-07-04 13:47:00,91.6,53.7,30.04,NW,315,1.1,1.1,28,0.00,,,0.00,WUHU21623XXSP,2013-07-04 20:47:00,
2013-07-04 13:52:00,92.5,53.3,30.03,WNW,292,1.6,1.6,27,0.00,,,0.00,WUHU21623XXSP,2013-07-04 20:52:00,
2013-07-04 13:57:00,94.8,54.2,30.03,NNE,22,0.0,2.5,26,0.00,,,0.00,WUHU21623XXSP,2013-07-04 20:57:00,
2013-07-04 14:02:00,95.5,53.7,30.03,NNW,337,0.0,2.5,25,0.00,,,0.00,WUHU21623XXSP,2013-07-04 21:02:00,
2013-07-04 14:12:00,95.9,55.1,30.03,ESE,112,0.0,0.0,26,0.00,,,0.00,WUHU21623XXSP,2013-07-04 21:12:00,
2013-07-04 14:19:00,95.7,55.0,30.02,NNE,22,0.0,0.0,26,0.00,,,0.00,WUHU21623XXSP,2013-07-04 21:19:00,
2013-07-04 14:24:00,95.9,55.1,30.01,NNW,337,0.0,0.0,26,0.00,,,0.00,WUHU21623XXSP,2013-07-04 21:24:00,
2013-07-04 14:29:00,96.1,54.2,30.01,WSW,247,0.0,0.0,25,0.00,,,0.00,WUHU21623XXSP,2013-07-04 21:29:00,
2013-07-04 14:42:00,96.4,54.5,30.02,NNW,337,8.9,8.9,25,0.00,,,0.00,WUHU21623XXSP,2013-07-04 21:42:00,
2013-07-04 14:51:00,96.1,56.4,30.02,SW,225,0.0,8.9,27,0.00,,,0.00,WUHU21623XXSP,2013-07-04 21:51:00,
2013-07-04 14:56:00,96.1,56.4,30.02,NW,315,0.0,0.0,27,0.00,,,0.00,WUHU21623XXSP,2013-07-04 21:56:00,
2013-07-04 15:01:00,96.1,56.4,30.02,WSW,247,0.7,0.7,27,0.00,,,0.00,WUHU21623XXSP,2013-07-04 22:01:00,
2013-07-04 15:06:00,96.1,56.4,30.02,WNW,292,6.5,6.5,27,0.00,,,0.00,WUHU21623XXSP,2013-07-04 22:06:00,
2013-07-04 15:19:00,95.5,55.9,30.02,South,180,2.0,2.0,26,0.00,,,0.00,WUHU21623XXSP,2013-07-04 22:19:00,
2013-07-04 15:24:00,95.4,54.8,30.01,South,180,2.0,2.0,27,0.00,,,0.00,WUHU21623XXSP,2013-07-04 22:24:00,
2013-07-04 15:31:00,95.5,54.8,30.01,SW,225,0.9,3.6,26,0.00,,,0.00,WUHU21623XXSP,2013-07-04 22:31:00,
2013-07-04 15:38:00,95.7,55.0,30.01,WNW,292,2.9,2.9,26,0.00,,,0.00,WUHU21623XXSP,2013-07-04 22:38:00,
2013-07-04 15:43:00,95.7,55.0,30.01,WNW,292,0.0,2.9,26,0.00,,,0.00,WUHU21623XXSP,2013-07-04 22:43:00,
2013-07-04 15:48:00,95.9,55.1,30.01,SSW,202,2.5,2.5,26,0.00,,,0.00,WUHU21623XXSP,2013-07-04 22:48:00,
2013-07-04 15:53:00,95.7,55.0,30.00,West,270,3.4,3.4,26,0.00,,,0.00,WUHU21623XXSP,2013-07-04 22:53:00,
2013-07-04 15:58:00,95.9,55.0,30.00,WNW,292,0.0,3.4,26,0.00,,,0.00,WUHU21623XXSP,2013-07-04 22:58:00,
2013-07-04 16:03:00,96.1,55.3,30.00,North,0,1.3,2.0,25,0.00,,,0.00,WUHU21623XXSP,2013-07-04 23:03:00,
2013-07-04 16:08:00,96.1,54.2,30.00,NNW,337,5.4,5.4,25,0.00,,,0.00,WUHU21623XXSP,2013-07-04 23:08:00,
2013-07-04 16:13:00,96.3,54.3,30.00,WNW,292,1.8,5.4,26,0.00,,,0.00,WUHU21623XXSP,2013-07-04 23:13:00,
2013-07-04 16:18:00,96.4,54.5,30.01,West,270,0.0,1.8,25,0.00,,,0.00,WUHU21623XXSP,2013-07-04 23:18:00,
2013-07-04 16:25:00,96.3,54.3,30.00,SW,225,3.6,3.6,25,0.00,,,0.00,WUHU21623XXSP,2013-07-04 23:25:00,
2013-07-04 16:31:00,96.1,54.2,30.00,WNW,292,6.7,6.7,25,0.00,,,0.00,WUHU21623XXSP,2013-07-04 23:31:00,
2013-07-04 16:36:00,96.1,54.2,30.00,West,270,6.7,6.7,25,0.00,,,0.00,WUHU21623XXSP,2013-07-04 23:36:00,
2013-07-04 16:41:00,96.1,55.3,30.00,WNW,292,2.7,6.7,26,0.00,,,0.00,WUHU21623XXSP,2013-07-04 23:41:00,
2013-07-04 16:48:00,95.7,55.0,30.00,NW,315,17.0,17.0,26,0.00,,,0.00,WUHU21623XXSP,2013-07-04 23:48:00,
2013-07-04 16:54:00,95.5,54.8,30.00,NNW,337,1.8,17.0,26,0.00,,,0.00,WUHU21623XXSP,2013-07-04 23:54:00,
2013-07-04 16:59:00,95.4,54.6,30.00,West,270,5.6,5.6,26,0.00,,,0.00,WUHU21623XXSP,2013-07-04 23:59:00,
2013-07-04 17:08:00,94.8,54.2,30.00,WNW,292,11.4,11.4,26,0.00,,,0.00,WUHU21623XXSP,2013-07-05 00:08:00,
2013-07-04 17:16:00,94.6,56.3,30.00,WNW,292,12.8,12.8,28,0.00,,,0.00,WUHU21623XXSP,2013-07-05 00:16:00,
2013-07-04 17:23:00,93.9,55.8,30.00,NNE,22,1.8,12.8,28,0.00,,,0.00,WUHU21623XXSP,2013-07-05 00:23:00,
2013-07-04 17:28:00,93.9,56.7,30.00,WNW,292,2.0,2.0,29,0.00,,,0.00,WUHU21623XXSP,2013-07-05 00:28:00,
2013-07-04 17:33:00,93.7,57.7,30.00,WNW,292,8.9,8.9,30,0.00,,,0.00,WUHU21623XXSP,2013-07-05 00:33:00,
2013-07-04 17:42:00,93.0,56.0,30.00,NNW,337,0.7,5.4,29,0.00,,,0.00,WUHU21623XXSP,2013-07-05 00:42:00,
2013-07-04 17:48:00,93.0,56.0,30.00,South,180,4.9,4.9,29,0.00,,,0.00,WUHU21623XXSP,2013-07-05 00:48:00,
2013-07-04 17:53:00,92.8,55.8,30.00,West,270,5.8,5.8,29,0.00,,,0.00,WUHU21623XXSP,2013-07-05 00:53:00,
2013-07-04 17:58:00,92.5,55.7,30.00,WNW,292,2.9,5.8,29,0.00,,,0.00,WUHU21623XXSP,2013-07-05 00:58:00,
2013-07-04 18:03:00,92.5,56.6,30.00,WNW,292,3.1,3.1,30,0.00,,,0.00,WUHU21623XXSP,2013-07-05 01:03:00,
2013-07-04 18:08:00,92.5,56.6,30.00,West,270,4.3,4.3,28,0.00,,,0.00,WUHU21623XXSP,2013-07-05 01:08:00,
2013-07-04 18:14:00,91.9,55.1,30.00,NNW,337,0.0,9.4,29,0.00,,,0.00,WUHU21623XXSP,2013-07-05 01:14:00,
2013-07-04 18:19:00,91.9,54.0,30.00,West,270,0.0,9.4,28,0.00,,,0.00,WUHU21623XXSP,2013-07-05 01:19:00,
2013-07-04 18:24:00,91.6,53.7,30.00,West,270,0.9,0.9,28,0.00,,,0.00,WUHU21623XXSP,2013-07-05 01:24:00,
2013-07-04 18:29:00,91.2,53.4,30.00,West,270,2.2,2.2,28,0.00,,,0.00,WUHU21623XXSP,2013-07-05 01:29:00,
2013-07-04 18:34:00,91.0,53.2,30.00,West,270,4.7,4.7,28,0.00,,,0.00,WUHU21623XXSP,2013-07-05 01:34:00,
2013-07-04 18:46:00,90.5,52.8,30.00,SW,225,1.1,1.1,28,0.00,,,0.00,WUHU21623XXSP,2013-07-05 01:46:00,
2013-07-04 18:57:00,90.0,52.3,30.00,SW,225,3.1,3.1,28,0.00,,,0.00,WUHU21623XXSP,2013-07-05 01:57:00,
2013-07-04 19:03:00,89.6,53.1,30.00,WNW,292,0.0,3.1,29,0.00,,,0.00,WUHU21623XXSP,2013-07-05 02:03:00,
2013-07-04 19:08:00,89.4,52.9,30.00,SW,225,0.0,0.0,29,0.00,,,0.00,WUHU21623XXSP,2013-07-05 02:08:00,
2013-07-04 19:16:00,89.2,52.7,30.00,NW,315,0.0,0.0,29,0.00,,,0.00,WUHU21623XXSP,2013-07-05 02:16:00,
2013-07-04 19:31:00,88.7,53.3,30.01,WNW,292,0.0,0.0,30,0.00,,,0.00,WUHU21623XXSP,2013-07-05 02:31:00,
2013-07-04 19:37:00,88.5,54.0,30.01,WSW,247,1.1,1.1,31,0.00,,,0.00,WUHU21623XXSP,2013-07-05 02:37:00,
2013-07-04 19:44:00,88.3,53.8,30.01,South,180,0.0,1.1,31,0.00,,,0.00,WUHU21623XXSP,2013-07-05 02:44:00,
2013-07-04 19:49:00,88.3,53.8,30.01,WNW,292,0.0,0.0,31,0.00,,,0.00,WUHU21623XXSP,2013-07-05 02:49:00,
2013-07-04 19:55:00,88.0,53.5,30.01,NW,315,0.0,0.0,31,0.00,,,0.00,WUHU21623XXSP,2013-07-05 02:55:00,
2013-07-04 20:00:00,87.6,53.2,30.01,WSW,247,0.0,0.0,31,0.00,,,0.00,WUHU21623XXSP,2013-07-05 03:00:00,
2013-07-04 20:05:00,87.4,54.0,30.01,North,0,0.0,0.0,32,0.00,,,0.00,WUHU21623XXSP,2013-07-05 03:05:00,
2013-07-04 20:16:00,86.9,53.4,30.01,NNW,337,0.0,0.0,32,0.00,,,0.00,WUHU21623XXSP,2013-07-05 03:16:00,
2013-07-04 20:27:00,86.4,53.7,30.02,WNW,292,0.0,0.0,33,0.00,,,0.00,WUHU21623XXSP,2013-07-05 03:27:00,
2013-07-04 20:40:00,85.6,53.9,30.02,NW,315,0.0,0.0,34,0.00,,,0.00,WUHU21623XXSP,2013-07-05 03:40:00,
2013-07-04 20:45:00,85.6,53.9,30.02,NW,315,0.0,0.0,34,0.00,,,0.00,WUHU21623XXSP,2013-07-05 03:45:00,
2013-07-04 20:50:00,85.1,54.2,30.02,NNE,22,0.0,0.0,35,0.00,,,0.00,WUHU21623XXSP,2013-07-05 03:50:00,
2013-07-04 20:55:00,84.7,53.9,30.02,NNE,22,0.0,0.0,35,0.00,,,0.00,WUHU21623XXSP,2013-07-05 03:55:00,
2013-07-04 21:03:00,84.0,53.3,30.02,NNW,337,0.0,0.0,35,0.00,,,0.00,WUHU21623XXSP,2013-07-05 04:03:00,
2013-07-04 21:04:00,84.0,53.3,30.02,NNW,337,0.0,0.0,35,0.00,,,0.00,WUHU21623XXSP,2013-07-05 04:04:00,
2013-07-04 21:05:00,84.0,53.3,30.02,NNW,337,0.0,0.0,35,0.00,,,0.00,WUHU21623XXSP,2013-07-05 04:05:00,
2013-07-04 21:18:00,83.1,52.4,30.02,NW,315,0.0,0.0,35,0.00,,,0.00,WUHU21623XXSP,2013-07-05 04:18:00,
2013-07-04 21:23:00,82.9,52.3,30.02,NNE,22,0.0,0.0,35,0.00,,,0.00,WUHU21623XXSP,2013-07-05 04:23:00,
2013-07-04 21:29:00,82.6,52.8,30.02,NNE,22,0.0,0.0,36,0.00,,,0.00,WUHU21623XXSP,2013-07-05 04:29:00,
2013-07-04 21:34:00,82.2,52.4,30.02,NNW,337,1.3,1.3,36,0.00,,,0.00,WUHU21623XXSP,2013-07-05 04:34:00,
2013-07-04 21:39:00,82.0,52.3,30.01,North,0,0.0,1.3,36,0.00,,,0.00,WUHU21623XXSP,2013-07-05 04:39:00,
2013-07-04 21:46:00,81.5,51.8,30.02,SSE,157,0.0,0.0,36,0.00,,,0.00,WUHU21623XXSP,2013-07-05 04:46:00,
2013-07-04 21:52:00,81.1,51.5,30.03,ESE,112,0.0,0.0,36,0.00,,,0.00,WUHU21623XXSP,2013-07-05 04:52:00,
2013-07-04 22:03:00,80.1,50.6,30.02,ESE,112,0.0,0.0,36,0.00,,,0.00,WUHU21623XXSP,2013-07-05 05:03:00,
2013-07-04 22:08:00,79.7,50.2,30.02,ESE,112,0.0,0.0,36,0.00,,,0.00,WUHU21623XXSP,2013-07-05 05:08:00,
2013-07-04 22:18:00,79.0,50.4,30.02,ESE,112,0.0,0.0,37,0.00,,,0.00,WUHU21623XXSP,2013-07-05 05:18:00,
2013-07-04 22:23:00,78.6,50.0,30.02,ESE,112,0.0,0.0,37,0.00,,,0.00,WUHU21623XXSP,2013-07-05 05:23:00,
2013-07-04 22:28:00,78.4,49.9,30.02,ESE,112,0.0,0.0,37,0.00,,,0.00,WUHU21623XXSP,2013-07-05 05:28:00,
2013-07-04 22:33:00,77.7,50.3,30.02,WNW,292,0.0,0.0,38,0.00,,,0.00,WUHU21623XXSP,2013-07-05 05:33:00,
2013-07-04 22:39:00,77.5,49.9,30.02,SW,225,0.0,0.0,38,0.00,,,0.00,WUHU21623XXSP,2013-07-05 05:39:00,
2013-07-04 22:44:00,77.2,49.7,30.02,SW,225,0.0,0.0,38,0.00,,,0.00,WUHU21623XXSP,2013-07-05 05:44:00,
2013-07-04 22:50:00,76.6,49.8,30.02,South,180,0.0,0.0,39,0.00,,,0.00,WUHU21623XXSP,2013-07-05 05:50:00,
2013-07-04 22:55:00,76.3,49.5,30.02,SE,135,0.0,0.0,40,0.00,,,0.00,WUHU21623XXSP,2013-07-05 05:55:00,
2013-07-04 23:00:00,75.9,49.9,30.02,SE,135,0.0,0.0,40,0.00,,,0.00,WUHU21623XXSP,2013-07-05 06:00:00,
2013-07-04 23:05:00,75.9,49.9,30.02,SE,135,0.0,0.0,40,0.00,,,0.00,WUHU21623XXSP,2013-07-05 06:05:00,
2013-07-04 23:10:00,75.0,49.7,30.02,SW,225,0.0,0.0,41,0.00,,,0.00,WUHU21623XXSP,2013-07-05 06:10:00,
2013-07-04 23:16:00,74.3,49.1,30.02,South,180,0.0,0.0,41,0.00,,,0.00,WUHU21623XXSP,2013-07-05 06:16:00,
2013-07-04 23:22:00,73.9,48.7,30.02,SSE,157,0.0,0.0,41,0.00,,,0.00,WUHU21623XXSP,2013-07-05 06:22:00,
2013-07-04 23:27:00,73.4,48.8,30.02,ESE,112,0.0,0.0,42,0.00,,,0.00,WUHU21623XXSP,2013-07-05 06:27:00,
2013-07-04 23:33:00,73.0,48.5,30.01,East,90,0.0,0.0,42,0.00,,,0.00,WUHU21623XXSP,2013-07-05 06:33:00,
2013-07-04 23:39:00,72.5,48.0,30.01,ENE,67,0.0,0.0,42,0.00,,,0.00,WUHU21623XXSP,2013-07-05 06:39:00,
2013-07-04 23:44:00,72.3,48.5,30.01,ENE,67,0.0,0.0,43,0.00,,,0.00,WUHU21623XXSP,2013-07-05 06:44:00,
2013-07-04 23:49:00,72.0,48.1,30.01,SSE,157,0.0,0.0,43,0.00,,,0.00,WUHU21623XXSP,2013-07-05 06:49:00,
2013-07-04 23:54:00,71.4,47.7,30.01,SSE,157,0.0,0.0,43,0.00,,,0.00,WUHU21623XXSP,2013-07-05 06:54:00,
2013-07-04 23:59:00,71.4,47.7,30.01,SSE,157,0.0,0.0,43,0.00,,,0.00,WUHU21623XXSP,2013-07-05 06:59:00,